Погода в Лещинове

Россия / Пензенская область     53°23′20″N   43°55′45″E
темп.,
°C
ветер,
м/с
пор.,
м/с
влажн.,
%
обл.,
%
осадки,
мм/ч
давл.,
гПа
погр.,
м
16 апреля, пт
пт1600:00+12вюв3363100 0.0 101637
03:00+11вюв2267100 0.0 101716
06:00+10в3468100 0.0 101745
09:00+14в4756100 0.0 1018273
12:00+18вюв5642100 0.0 1018819
15:00+19вюв5536100 0.0 10181478
18:00+17в344896 0.0 101862
21:00+13всв6137290 0.0 1020389
17 апреля, сб
сб1700:00+11в51286100 0.0 1020309
03:00+8в5119155 0.0 1021248
06:00+8всв5119035 0.0 1021263
09:00+12в7106910 0.0 1021498
12:00+17в794919 0.0 10201287
15:00+18в694495 0.0 10192173
18:00+15в8125695 0.0 1018837
21:00+12в81465100 0.1 1019930
18 апреля, вс
вс1800:00+8ююв4886100 1.8 1021538
03:00+8вюв2389100 2.6 1021179
06:00+7в239296 0.1 1021187
09:00+10в237577 0.2 1021732
12:00+12всв546284 0.2 10211188
15:00+10всв776846 0.2 1021768
18:00+7в797723 0.0 1022533
21:00+6в6128241 0.0 1022460
19 апреля, пн
пн1900:00+5в4118287 0.0 1022317
03:00+5всв511825 0.0 1022309
06:00+5в61285100 0.0 1023416
09:00+7в81170100 0.0 1024653
12:00+10в8953100 0.0 10241104
15:00+10в895099 0.0 10231636
18:00+9всв71057100 0.0 1024998
21:00+7в81262100 0.0 1025849
20 апреля, вт
вт2000:00+5в7137061 0.0 1024806
03:00+4в71368100 0.0 1025823
06:00+4в81569100 0.0 1024859
09:00+5вюв91668100 0.0 1024924
12:00+7вюв101761100 0.0 10221051
15:00+8вюв111859100 0.0 10201160
18:00+6вюв122067100 0.2 10201067
21:00+5вюв112079100 1.8 10201021